Flag for U.S.A. Weather past 2 weeks in Germantown, Maryland, U.S.A.

Now
66 °F

Clear.


Feels Like: 66 °F
Forecast: 65 / 88 °F
Wind: No wind

Location: Frederick Municipal Airport

Current Time: Aug 30, 2015 at 4:32:00 AM

Latest Report: Aug 30, 2015 at 3:45 AM


Visibility: 10 mi

Pressure: 30.12 "Hg

Humidity: 100%

Dew point: 66 °F

Location of GermantownLocation

Historic Weather in Germantown — Graph

°F

Germantown temperature yesterday

Maximum temperature yesterday: 90 °F (at 3:50 PM)
Minimum temperature yesterday: 55 °F (at 5:45 AM)
Average temperature yesterday: 70 °F

Past Weeks' High & Low Weather Summary

 TemperatureHumidityPressure
High97 °F (Aug 17, 2:45 PM)100% (Aug 15, 3:25 AM)30.25 "Hg (Aug 15, 3:25 AM)
Low54 °F (Aug 22, 3:45 AM)34% (Aug 17, 2:45 PM)29.84 "Hg (Aug 24, 6:45 PM)
Average70 °F84%30.07 "Hg
* Reported Aug 15 3:05 AM — Aug 30 3:25 AM, Germantown, Weather by CustomWeather, © 2015

Note: Actual official high and low records may vary slightly from our data, if they occured in-between our weather recording intervals... More about our weather records

Advertising

Germantown weather history for previous 24 hours

 ConditionsComfort  
Time TempWeatherWind HumidityBarometerVisibility
3:25 AM
Sun, Aug 30
64 °FClear.No wind100%30.12 "Hg10 mi
3:05 AM66 °FClear.No wind100%30.12 "Hg10 mi
2:45 AM66 °FClear.No wind100%30.12 "Hg10 mi
2:25 AM68 °FClear.No wind88%30.12 "Hg10 mi
2:05 AM64 °FClear.No wind100%30.12 "Hg10 mi
1:45 AM66 °FClear.No wind100%30.13 "Hg10 mi
1:25 AM64 °FClear.No wind100%30.13 "Hg10 mi
1:05 AM68 °FClear.No wind94%30.14 "Hg10 mi
12:45 AM68 °FClear.No wind94%30.14 "Hg10 mi
12:25 AM66 °FClear.No wind94%30.15 "Hg10 mi
11:45 PM
Sat, Aug 29
68 °FClear.No wind88%30.14 "Hg10 mi
11:25 PM68 °FClear.No wind88%30.15 "Hg10 mi
10:45 PM73 °FClear.No wind74%30.15 "Hg10 mi
10:25 PM72 °FClear.3 mph83%30.14 "Hg10 mi
10:05 PM72 °FClear.3 mph83%30.14 "Hg10 mi
9:45 PM73 °FClear.No wind74%30.13 "Hg10 mi
9:25 PM75 °FClear.No wind69%30.13 "Hg10 mi
9:05 PM77 °FClear.3 mph69%30.12 "Hg10 mi
8:45 PM77 °FClear.3 mph69%30.12 "Hg10 mi
8:25 PM77 °FSunny.No wind69%30.11 "Hg10 mi
7:48 PM81 °FSunny.No wind62%30.11 "Hg10 mi
5:50 PM88 °FScattered clouds.7 mph46%30.12 "Hg10 mi
4:55 PM88 °FScattered clouds.7 mph46%30.13 "Hg10 mi
3:50 PM90 °FSunny.7 mph43%30.14 "Hg10 mi
2:50 PM88 °FSunny.6 mph46%30.16 "Hg10 mi
1:52 PM88 °FSunny.8 mph49%30.18 "Hg10 mi
12:47 PM84 °FScattered clouds.7 mph55%30.20 "Hg10 mi
11:45 AM81 °FScattered clouds.6 mph58%30.23 "Hg10 mi
10:50 AM79 °FSunny.3 mph61%30.24 "Hg10 mi
9:47 AM73 °FSunny.8 mph74%30.23 "Hg10 mi
8:45 AM66 °FSunny.No wind88%30.24 "Hg10 mi
7:50 AM61 °FSunny.No wind100%30.24 "Hg10 mi
6:52 AM55 °FClear.No wind100%30.22 "Hg10 mi
6:05 AM55 °FFog.No wind100%30.22 "Hg2 mi
5:45 AM55 °FFog.No wind100%30.21 "Hg3 mi
5:25 AM57 °FFog.No wind100%30.21 "Hg4 mi
5:05 AM59 °FFog.No wind100%30.22 "Hg3 mi
4:45 AM57 °FClear.No wind100%30.22 "Hg7 mi
Weather by CustomWeather, © 2015

See weather overviewHow to use our weather pages